Showing default

SHIYAN 5 (SY-5), 39455

Orbit data source: Space-Track

SHIYAN 5 (SY-5), 39455 is a payload satellite owned by CRESDA (CN) in SSO that was launched on Mon, 25 Nov 2013 UTC via a CHANG ZHENG 2D launch vehicle from the Jiuquan Satellite Launch Center, China (JSC). Payload-class satellites include a variety of spacecraft equipped with specific instruments for various scientific and technological missions. These include communications satellites like Starlink; space stations such as the ISS; scientific satellites like the Hubble; Earth observation satellites from companies like Planet Labs, Umbra, and HawkEye 360; GPS; miniature CubeSats for education and research; and military/defense satellites.

Loading next visibility...
Identifier
39455, 2013-068A
Orbit
SSO
Country
Flag of CNCN / PRC
Related business
Manufacturer
DFHZ/HARB
Mission
Operational Civil Technology
Bus & Motor
CAST-3000?, Unknown motor
Mass
~700 kg wet, ~700 kg dry
Launch date (UTC)
2013-11-25 (13 years ago)
Launch vehicle
CHANG ZHENG 2D
Launch site
Jiuquan Satellite Launch Center, China (JSC)
Object type
Payload
Rocket body
Debris
Shape & HBR
Box + 1 Pan, 2.0 m
Radar Cross Section
2.313 m², Large (>1 m²)

Expand to show TLE details & history
Last TLE update: 22 hours ago

TLE from 22 hours ago
0 SHIYAN 5 (SY-5)
1 39455U 13068A   26172.57928369  .00000022  00000-0  18373-4 0  9991
2 39455  98.0714  43.5036 0012966 293.8213  66.1619 14.43681579662269
Epoch: 2026-06-21T13:54Z
TLE epoch observation values (Epoch: 2026-06-21T13:54:10.110Z)
Latitude
-0.00004°
Longitude
-74.81605°
Altitude
745.603 km
Speed
7.484 km/s
True Right ascension
02h 54m 00s
True Declination
0° 00' 00"
Sunlit
Object was in daylight at epoch
Visualization orbit readout
Latitude
Unknown
Longitude
Unknown
Altitude
Unknown
Speed
Unknown
Apparent Right ascension
Unknown
Apparent Declination
Unknown
Sunlit
N/A
Visualization observer readout
Local Sidereal Time
23:08:01
Azimuth
Unknown
Elevation
Unknown
Doppler factor
Unknown
Orbital elements
Apogee altitude
752.691 km
Perigee altitude
734.224 km
Semi-major axis
7,121.595 km
Eccentricity
0.0013
Inclination
98.0714°
RAAN
43.5036°
Arg. of periapsis
293.8213°
True anomaly
66.29789°
Mean anomaly
66.1619°
Eccentric anomaly
66.22989°
Mean motion
3.61141 °/min
Orbital period
99.68 mins
BSTAR
0.000018373
Loading maneuver chart data...
Computing Atmospheric mass density...
Loading historical data...
Loading historical data...
Loading historical data...
Loading historical data...
Loading historical data...
Loading historical data...
Loading historical data...
Other satellites on launch #68 in the year 2013 (2013-11-25 UTC)

Documentation

Showing up to 5 results
|